This is the latest recevied weather packets stored in our database for station/object N6RDS. If no packets are shown the sender has not sent any weather packets the latest 10 day(s).
| Time | Temp. | Humidity | Pressure | Rain* | Wind** | Luminosity | Snow |
|---|---|---|---|---|---|---|---|
| 1777837079 | 20.56° C | 31% | 1025 hPa | 0 mm | - | 830 W/m² | - |
| 1777836775 | 20.56° C | 30% | 1025 hPa | 0 mm | - | 847 W/m² | - |
| 1777836471 | 19.44° C | 31% | 1025.3 hPa | 0 mm | - | 862 W/m² | - |
| 1777836167 | 20.56° C | 32% | 1025.4 hPa | 0 mm | - | 178 W/m² | - |
| 1777835863 | 22.22° C | 28% | 1025.4 hPa | 0 mm | - | 129 W/m² | - |
| 1777835560 | 20.56° C | 30% | 1025.2 hPa | 0 mm | - | 907 W/m² | - |
| 1777835257 | 21.11° C | 31% | 1025.6 hPa | 0 mm | - | 221 W/m² | - |
| 1777834953 | 21.67° C | 29% | 1025.6 hPa | 0 mm | - | 169 W/m² | - |
| 1777834651 | 22.22° C | 27% | 1025.4 hPa | 0 mm | - | 899 W/m² | - |
| 1777834346 | 21.11° C | 28% | 1025.5 hPa | 0 mm | - | 920 W/m² | - |
| 1777834041 | 22.22° C | 31% | 1025.5 hPa | 0 mm | - | 899 W/m² | - |
| 1777833737 | 20.56° C | 31% | 1025.4 hPa | 0 mm | - | 942 W/m² | - |
| 1777833434 | 21.67° C | 29% | 1025.8 hPa | 0 mm | - | 870 W/m² | - |
| 1777833131 | 21.11° C | 29% | 1025.6 hPa | 0 mm | - | 904 W/m² | - |
| 1777832829 | 20.56° C | 30% | 1025.6 hPa | 0 mm | - | 853 W/m² | - |
| 1777832528 | 20.56° C | 31% | 1025.8 hPa | 0 mm | - | 540 W/m² | - |
| 1777832223 | 19.44° C | 30% | 1025.9 hPa | 0 mm | - | 900 W/m² | - |
| 1777831921 | 20° C | 30% | 1026.3 hPa | 0 mm | - | 179 W/m² | - |
| 1777831617 | 20.56° C | 32% | 1026.1 hPa | 0 mm | - | 174 W/m² | - |
| 1777831316 | 20.56° C | 32% | 1026.3 hPa | 0 mm | - | 190 W/m² | - |
| 1777831012 | 19.44° C | 33% | 1026.1 hPa | 0 mm | - | 212 W/m² | - |
| 1777830710 | 20° C | 34% | 1026.3 hPa | 0 mm | - | 193 W/m² | - |
| 1777830406 | 20.56° C | 33% | 1026.1 hPa | 0 mm | - | 130 W/m² | - |
| 1777830103 | 21.11° C | 33% | 1026.4 hPa | 0 mm | - | 802 W/m² | - |
| 1777829798 | 20.56° C | 30% | 1026.6 hPa | 0 mm | - | 775 W/m² | - |
* Rain latest hour (hover to see other rain measurements)
** Current wind speed in m/s (hover to see current wind gust speed)